Evanston, WY

12:01 AM MDT on July 26, 2017 (GMT -0600)
Evanston-Uinta County Burns

Weather History for KEVW - January, 2012

Change the Weather History Date:

Sunday, January 22, 2012

  Actual Average Record
Temperature  
Mean Temperature 20 °F 22 °F  
Max Temperature 24 °F 29 °F 42 °F (2009)
Min Temperature 15 °F 14 °F -4 °F (2008)
Degree Days  
Heating Degree Days 45 43  
Month to date heating degree days 839 956  
Since 1 July heating degree days 4107 4435  
Cooling Degree Days 0 0  
Month to date cooling degree days 0 0  
Year to date cooling degree days 0 0  
Moisture  
Dew Point 15 °F    
Average Humidity 80    
Maximum Humidity 92    
Minimum Humidity 68    
Precipitation  
Precipitation T in 0.02 in 0.04 in (2009)
Month to date precipitation 0.09 0.40  
Year to date precipitation 0.09 0.40  
Sea Level Pressure  
Sea Level Pressure 29.95 in    
Wind  
Wind Speed 14 mph (WSW)    
Max Wind Speed 24 mph    
Max Gust Speed 29 mph    
Visibility 8 miles    
Events Snow    
T = Trace of Precipitation, MM = Missing Value Source: NWS Daily Summary

Daily Weather History Graph

Daily Weather History Graph

Search for Another Location

Airport or City:

Trip Planner

Search our weather history database for the weather conditions in past years. The results will help you decide how hot, cold, wet, or windy it might be!

Date:

Astronomy

Jan. 22, 2012 Rise Set
Actual Time 7:43 AM MST 5:27 PM MST
Civil Twilight 7:14 AM MST 5:57 PM MST
Nautical Twilight 6:40 AM MST 6:31 PM MST
Astronomical Twilight 6:07 AM MST 7:04 PM MST
Moon 7:03 AM MST (1/22) 5:13 PM MST (1/22)
Length of Visible Light 10h 43m
Length of Day
9h 43m
Waning Crescent, 0% of the Moon is Illuminated
Jan 22
Waning Crescent
Jan 23
New
Jan 30
First Quarter
Feb 7
Full
Feb 14
Last Quarter

Hourly Weather History & Observations

Time (MST) Temp. Windchill Dew Point Humidity Pressure Visibility Wind Dir Wind Speed Gust Speed Precip Events Conditions
12:36 AM 24.8 °F 12.4 °F 17.6 °F 74% 29.70 in 10.0 mi WNW 15.0 mph - N/A   Mostly Cloudy
12:53 AM 23.0 °F 11.7 °F 18.0 °F 81% 29.73 in 10.0 mi West 11.5 mph - N/A   Overcast
1:10 AM 23.0 °F 10.6 °F 17.6 °F 80% 29.72 in 10.0 mi WNW 13.8 mph - 0.00 in   Overcast
1:53 AM 21.9 °F 7.3 °F 18.0 °F 85% 29.78 in 9.0 mi WSW 18.4 mph - 0.00 in Snow Light Snow
2:17 AM 21.2 °F 5.6 °F 17.6 °F 86% 29.77 in 1.8 mi West 20.7 mph - 0.00 in Snow Light Snow
2:24 AM 21.2 °F 5.6 °F 17.6 °F 86% 29.77 in 1.0 mi West 20.7 mph - 0.00 in Snow Light Snow
2:31 AM 21.2 °F 6.8 °F 19.4 °F 93% 29.78 in 0.8 mi West 17.3 mph - 0.00 in Snow Light Snow
2:39 AM 21.2 °F 7.3 °F 17.6 °F 86% 29.79 in 1.5 mi West 16.1 mph - 0.00 in Snow Light Snow
2:53 AM 21.0 °F 7.1 °F 18.0 °F 88% 29.83 in 1.8 mi West 16.1 mph - 0.00 in Snow Light Snow
3:00 AM 21.2 °F 6.8 °F 17.6 °F 86% 29.80 in 3.0 mi WNW 17.3 mph - 0.00 in Snow Light Snow
3:37 AM 19.4 °F 6.6 °F 17.6 °F 93% 29.81 in 9.0 mi West 12.7 mph - 0.00 in Snow Light Snow
4:53 AM 18.0 °F 4.8 °F 15.1 °F 88% 29.90 in 10.0 mi WSW 12.7 mph - 0.00 in   Partly Cloudy
5:36 AM 19.4 °F 4.5 °F 15.8 °F 86% 29.86 in 10.0 mi WSW 17.3 mph - N/A   Mostly Cloudy
5:53 AM 19.9 °F 5.7 °F 15.1 °F 81% 29.92 in 10.0 mi West 16.1 mph - N/A   Overcast
6:16 AM 19.4 °F 6.6 °F 15.8 °F 86% 29.88 in 10.0 mi WSW 12.7 mph - N/A   Overcast
6:53 AM 17.1 °F 2.0 °F 10.9 °F 77% 29.97 in 10.0 mi West 16.1 mph - N/A   Scattered Clouds
7:53 AM 16.0 °F 5.3 °F 10.9 °F 81% 30.03 in 10.0 mi WSW 8.1 mph - N/A   Mostly Cloudy
8:39 AM 19.4 °F 6.0 °F 12.2 °F 74% 29.94 in 10.0 mi West 13.8 mph - 0.00 in   Overcast
9:53 AM 19.9 °F 6.2 °F 17.1 °F 89% 30.06 in 10.0 mi SW 15.0 mph - 0.00 in   Overcast
10:53 AM 21.0 °F 6.6 °F 16.0 °F 81% 30.07 in 10.0 mi WSW 17.3 mph - N/A   Overcast
11:24 AM 19.4 °F 6.6 °F 15.8 °F 86% 29.99 in 10.0 mi WSW 12.7 mph - N/A   Partly Cloudy
11:53 AM 19.9 °F 7.9 °F 16.0 °F 85% 30.10 in 10.0 mi SSW 11.5 mph - N/A   Mostly Cloudy
1:20 PM 21.2 °F 5.6 °F 14.0 °F 74% 29.99 in 10.0 mi SW 20.7 mph - N/A   Scattered Clouds
2:53 PM 21.9 °F 7.8 °F 15.1 °F 75% 30.08 in 10.0 mi WSW 17.3 mph - N/A   Clear
3:53 PM 21.0 °F 9.9 °F 12.9 °F 71% 30.10 in 10.0 mi SW 10.4 mph - N/A   Clear
4:53 PM 19.0 °F 6.8 °F 12.9 °F 77% 30.13 in 10.0 mi SW 11.5 mph - N/A   Clear
5:53 PM 18.0 °F 5.4 °F 12.0 °F 78% 30.12 in 10.0 mi SW 11.5 mph - N/A   Clear
6:53 PM 19.0 °F 5.6 °F 12.0 °F 74% 30.13 in 10.0 mi SW 13.8 mph - N/A   Overcast
7:53 PM 18.0 °F 5.4 °F 12.0 °F 78% 30.14 in 10.0 mi SSW 11.5 mph - N/A   Scattered Clouds
8:53 PM 19.0 °F 6.8 °F 12.9 °F 77% 30.11 in 10.0 mi SW 11.5 mph - N/A   Overcast
9:53 PM 18.0 °F 4.2 °F 12.0 °F 78% 30.09 in 10.0 mi SW 13.8 mph - N/A   Partly Cloudy
10:53 PM 15.1 °F 1.1 °F 10.0 °F 80% 30.07 in 10.0 mi SW 12.7 mph - N/A   Clear
11:53 PM 19.0 °F 6.1 °F 12.0 °F 74% 30.06 in 10.0 mi WSW 12.7 mph - N/A   Overcast